[[{"header":{"parameterUnit":"m.s-1","parameterCategory":1,"la1":30.2991,"la2":30.254,"lo1":-89.0895,"lo2":-89.0444,"dy":0.0017,"dx":0.0017,"nx":28,"ny":28,"refTime":"2024-05-12T21:00:00:Z","depth":0,"parameterNumber":2,"parameterNumberName":"U-component_of_WINDS"},"data":[0,0,0,0,0,0,0,0,0,0,0,0,0,0,0,0,0,0,0,0,0,0,0,0,0,0,0,0,0,0,0,0,0,0,0,0,0,0,0,0,0,0,0,0,0,0,0,0,0,0,0,0,0,0,0,0,0,0,-4.6862,-4.6862,0,-4.6868,-4.6868,-4.6868,-4.6737,-4.6733,-4.673,-4.6726,-4.6735,-4.6739,-4.6742,0,0,0,0,0,0,0,0,0,0,0,0,0,-4.674,-4.6743,-4.6862,-4.6862,-4.6862,-4.6868,-4.6868,-4.6868,-4.6737,-4.6733,-4.6729,-4.6725,-4.6734,-4.6738,-4.6742,0,0,0,0,0,0,0,0,0,0,0,0,0,-4.6774,-4.6744,-4.6862,-4.6797,-4.6792,-4.6868,-4.6868,-4.6868,-4.6738,-4.6733,-4.6728,-4.6723,-4.6733,-4.6738,-4.6743,-4.6882,0,0,-4.6759,-4.6762,0,0,0,0,0,0,0,0,-4.6772,-4.6779,-4.6807,-4.6802,-4.6796,-4.6796,-4.6828,-4.6873,-4.674,-4.6759,-4.6726,-4.672,-4.676,-4.6763,-4.6776,-4.6883,-4.6883,-4.676,-4.6763,-4.6765,-4.6767,0,0,0,0,0,0,0,-4.677,-4.6778,-4.6864,-4.6807,-4.6801,-4.6769,-4.6768,-4.6836,-4.6789,-4.6757,-4.6747,-4.6749,-4.6756,-4.6771,-4.6775,-4.6883,-4.676,-4.6764,-4.6768,-4.677,-4.7107,-4.7113,0,0,0,0,0,0,-4.6776,-4.6777,-4.6864,-4.6865,-4.6771,-4.6776,-4.6775,-4.6801,-4.6788,-4.6781,-4.6754,-4.6743,-4.6764,-4.6769,-4.6775,-4.6938,-4.6765,-4.677,-4.6773,-4.7102,-4.7109,-4.7115,0,0,0,0,0,0,-4.6774,-4.6785,-4.6864,-4.6818,-4.6826,-4.6783,-4.6815,-4.6804,-4.6819,-4.6786,-4.6777,-4.6778,-4.676,-4.6767,-4.6857,-4.6936,-4.6773,-4.6777,-4.7095,-4.7104,-4.7112,-4.7265,0,0,0,0,0,0,-4.6771,-4.6785,-4.6837,-4.682,-4.6829,-4.6945,-4.682,-4.6808,-4.6828,-4.6814,-4.6806,-4.6799,-4.6757,-4.685,-4.6862,-4.6941,-4.6782,-4.7087,-4.7099,-4.7109,-4.7253,-4.7278,-4.73,0,0,0,0,0,-4.6767,-4.688,-4.684,-4.6851,-4.6892,-4.695,-4.6955,-4.6903,-4.6835,-4.6887,-4.6867,-4.68,-4.6926,-4.686,-4.6873,-4.6954,-4.7082,-4.7096,-4.7108,-4.7243,-4.7273,-4.7299,0,0,0,0,0,0,-4.6907,-4.6876,-4.6832,-4.6942,-4.695,-4.6928,-4.6992,-4.6937,-4.6964,-4.695,-4.6885,-4.6884,-4.6985,-4.6978,-4.6906,-4.709,-4.6992,-4.7009,-4.709,-4.7119,-4.7142,-4.7142,-4.6786,0,0,0,0,0,-4.6951,-4.7,-4.697,-4.7071,-4.7077,-4.7034,-4.7057,-4.7017,-4.7022,-4.7025,-4.701,-4.7019,-4.7061,-4.7089,-4.7126,-4.7252,-4.7249,-4.7314,-4.7338,-4.7357,-4.7372,-4.744,-4.7469,-4.7158,-4.7158,-4.7157,0,0,-4.7041,-4.7031,-4.7065,-4.7099,-4.7099,-4.7153,-4.7038,-4.7098,-4.7138,-4.7034,-4.7118,-4.7108,-4.7114,-4.7223,-4.727,-4.7221,-4.7458,-4.7374,-4.739,-4.7394,-4.7457,-4.7486,-4.7513,-4.7166,-4.7165,-4.7163,0,0,-4.7234,-4.723,-4.7314,-4.7318,-4.7321,-4.7292,-4.7313,-4.7299,-4.7289,-4.7372,-4.7296,-4.7343,-4.7415,-4.7423,-4.7436,-4.7635,-4.7575,-4.7649,-4.7771,-4.7838,-4.7863,-4.7884,-4.7956,-4.7983,-4.7664,-4.7664,-4.7664,0,-4.7346,-4.7422,-4.7364,-4.7431,-4.7448,-4.7357,-4.7443,-4.7449,-4.7465,-4.748,-4.7424,-4.7515,-4.7512,-4.7622,-4.7671,-4.7685,-4.7707,-4.7649,-4.7864,-4.7885,-4.7904,-4.7972,-4.7999,-4.7673,-4.7672,-4.7671,-4.767,0,-4.7561,-4.7615,-4.7683,-4.77,-4.7725,-4.7801,-4.7756,-4.7789,-4.7747,-4.7725,-4.7812,-4.7806,-4.784,-4.7864,-4.7823,-4.7969,-4.7939,-4.7875,-4.7775,-4.7943,-4.8006,-4.8032,-4.7686,-4.7683,-4.768,-4.7678,0,0,-4.784,-4.7825,-4.7851,-4.7859,-4.7857,-4.7898,-4.7971,-4.8004,-4.8035,-4.8049,-4.8109,-4.8174,-4.8115,-4.8131,-4.8091,-4.815,-4.8309,-4.8078,-4.8077,-4.8122,-4.8472,-4.8521,-4.8552,-4.827,-4.8275,-4.8278,-4.8472,0,-4.8027,-4.8149,-4.8101,-4.8228,-4.8278,-4.8194,-4.8257,-4.8264,-4.8246,-4.8287,-4.8267,-4.8315,-4.8233,-4.8242,-4.8297,-4.8278,-4.8379,-4.8264,-4.8327,-4.833,-4.8328,-4.8584,-4.8635,-4.8818,-4.8496,-4.85,-4.8503,0,-4.8262,-4.8286,-4.8419,-4.8409,-4.8429,-4.8487,-4.8514,-4.8554,-4.8561,-4.8544,-4.8563,-4.8511,-4.8583,-4.8485,-4.8584,-4.8507,-4.8531,-4.8526,-4.8532,-4.8536,-4.8426,-4.8596,-4.8875,-4.8903,-4.8541,-4.8538,-4.8535,0,-4.8453,-4.8519,-4.8607,-4.8616,-4.8607,-4.8651,-4.8649,-4.865,-4.8674,-4.8699,-4.8714,-4.8748,-4.8767,-4.8794,-4.8753,-4.8685,-4.886,-4.8757,-4.8849,-4.885,-4.8889,-4.8887,-4.9176,-4.8904,-4.8904,-4.8903,-4.8902,0,-4.8668,-4.8752,-4.8693,-4.8747,-4.884,-4.8784,-4.8878,-4.8868,-4.887,-4.8922,-4.8851,-4.8902,-4.8844,-4.889,-4.8858,-4.8947,-4.8956,-4.8945,-4.8935,-4.8951,-4.8953,-4.8965,-4.8952,-4.891,-4.8909,-4.8907,-4.8906,0,-4.8897,-4.8861,-4.8951,-4.8936,-4.8935,-4.9004,-4.8992,-4.9042,-4.902,-4.9086,-4.9099,-4.9065,-4.9115,-4.9077,-4.9126,-4.9105,-4.9222,-4.9195,-4.922,-4.9212,-4.9306,-4.9298,-4.9614,-4.9653,-4.9355,-4.9358,-4.9361,0,-4.9036,-4.9099,-4.9092,-4.9121,-4.9124,-4.9173,-4.9197,-4.9145,-4.9174,-4.9188,-4.9237,-4.9281,-4.9313,-4.9398,-4.9378,-4.9417,-4.939,-4.9498,-4.9395,-4.941,-4.9393,-4.939,-4.9396,-4.9519,-4.9522,-4.9525,-4.9528,0,-4.9288,-4.9267,-4.9304,-4.9337,-4.9368,-4.9391,-4.9408,-4.9437,-4.9384,-4.942,-4.9471,-4.9496,-4.9547,-4.9593,-4.9624,-4.9624,-4.9569,-4.956,-4.9584,-4.96,-4.9613,-4.9608,-4.9277,-4.9553,-4.9551,-4.9549,-4.9547,-4.9546,-4.9476,-4.9529,-4.9533,-4.9577,-4.9585,-4.9604,-4.9651,-4.9635,-4.9676,-4.9713,-4.968,-4.9742,-4.9749,-4.9785,-4.9793,-4.9841,-4.9796,-4.983,-4.9838,-4.9848,-4.9861,-4.9605,-4.9846,-4.9846,-4.9845,-4.9844,-4.9844,0,-4.9725,-4.9724,-4.9765,-4.9792,-4.9828,-4.9772,-4.9789,-4.9823,-4.9878,-4.9889,-4.9923,-4.9982,-5.0026,-5.0011,-5.0051,-5.0092,-5.0068,-5.0105,-5.0101,-5.0103,-4.9898,-4.9874,-5.0124,-5.0124,-5.0124,-5.0124,-5.0124,-5.0124,-4.9858,-4.9945,-4.9926,-5.0017,-5.0015,-5.0074,-5.0089,-5.0106,-5.0115,-5.0184,-5.022,-5.021,-5.0211,-5.0251,-5.029,-5.0284,-5.0303,-5.0349,-5.0335,-5.0144,-5.0117,-5.009,-5.0068,-5.0353,-5.0354,-5.0535,-5.0536,-5.0538]},{"header":{"parameterUnit":"m.s-1","parameterCategory":1,"la1":30.2991,"la2":30.254,"lo1":-89.0895,"lo2":-89.0444,"dy":0.0017,"dx":0.0017,"nx":28,"ny":28,"refTime":"2024-05-12T21:00:00:Z","depth":0,"parameterNumber":3,"parameterNumberName":"V-component_of_WINDS"},"data":[0,0,0,0,0,0,0,0,0,0,0,0,0,0,0,0,0,0,0,0,0,0,0,0,0,0,0,0,0,0,0,0,0,0,0,0,0,0,0,0,0,0,0,0,0,0,0,0,0,0,0,0,0,0,0,0,0,0,-0.2333,-0.2333,0,-0.2344,-0.2344,-0.2344,-0.2356,-0.2356,-0.2356,-0.2356,-0.2368,-0.2368,-0.2368,0,0,0,0,0,0,0,0,0,0,0,0,0,-0.2321,-0.2322,-0.2333,-0.2333,-0.2333,-0.2344,-0.2344,-0.2344,-0.2356,-0.2356,-0.2356,-0.2356,-0.2368,-0.2368,-0.2368,0,0,0,0,0,0,0,0,0,0,0,0,0,-0.2329,-0.2322,-0.2333,-0.234,-0.2341,-0.2344,-0.2344,-0.2344,-0.2356,-0.2356,-0.2356,-0.2356,-0.2368,-0.2368,-0.2368,-0.2365,0,0,-0.2369,-0.2369,0,0,0,0,0,0,0,0,-0.2328,-0.2329,-0.2339,-0.234,-0.2341,-0.2349,-0.2344,-0.2351,-0.2356,-0.235,-0.2356,-0.2357,-0.2361,-0.2362,-0.2364,-0.2365,-0.2366,-0.2369,-0.2369,-0.2369,-0.2369,0,0,0,0,0,0,0,-0.2328,-0.2329,-0.2337,-0.2339,-0.234,-0.2343,-0.2344,-0.2345,-0.2354,-0.2351,-0.2351,-0.2353,-0.2362,-0.2363,-0.2364,-0.2366,-0.2369,-0.2369,-0.2369,-0.2369,-0.2363,-0.2363,0,0,0,0,0,0,-0.2326,-0.2328,-0.2337,-0.2338,-0.2335,-0.2343,-0.2344,-0.2346,-0.2354,-0.2356,-0.2352,-0.2353,-0.2363,-0.2364,-0.2364,-0.236,-0.2369,-0.2369,-0.2369,-0.2363,-0.2363,-0.2363,0,0,0,0,0,0,-0.2326,-0.2327,-0.2336,-0.2333,-0.2335,-0.2343,-0.2344,-0.2346,-0.2347,-0.2355,-0.2357,-0.2352,-0.2363,-0.2364,-0.2364,-0.236,-0.2369,-0.237,-0.2364,-0.2363,-0.2363,-0.2351,0,0,0,0,0,0,-0.2326,-0.2327,-0.2326,-0.2333,-0.2335,-0.2336,-0.2344,-0.2346,-0.2348,-0.2349,-0.2356,-0.2357,-0.2363,-0.2364,-0.2364,-0.2361,-0.237,-0.2364,-0.2363,-0.2363,-0.2352,-0.235,-0.2349,0,0,0,0,0,-0.2325,-0.2323,-0.2326,-0.2327,-0.2334,-0.2336,-0.2337,-0.2344,-0.2347,-0.2346,-0.2351,-0.2357,-0.236,-0.2363,-0.2364,-0.2361,-0.2364,-0.2364,-0.2363,-0.2352,-0.235,-0.2349,0,0,0,0,0,0,-0.2315,-0.2324,-0.2327,-0.2327,-0.2331,-0.2338,-0.2337,-0.2342,-0.2344,-0.2345,-0.2354,-0.2355,-0.2354,-0.2357,-0.2361,-0.2357,-0.2363,-0.2363,-0.2355,-0.2353,-0.2352,-0.2351,-0.237,0,0,0,0,0,-0.2313,-0.2314,-0.2322,-0.2321,-0.2322,-0.2329,-0.233,-0.2335,-0.2339,-0.2341,-0.2346,-0.2349,-0.2351,-0.2352,-0.2354,-0.2352,-0.2353,-0.235,-0.2348,-0.2347,-0.2347,-0.2344,-0.2342,-0.236,-0.236,-0.236,0,0,-0.2309,-0.2313,-0.2314,-0.2319,-0.2322,-0.2323,-0.233,-0.2331,-0.2332,-0.2341,-0.2341,-0.2344,-0.2349,-0.2347,-0.2347,-0.235,-0.2342,-0.2346,-0.2345,-0.2345,-0.2343,-0.2341,-0.234,-0.236,-0.236,-0.236,0,0,-0.2301,-0.2305,-0.2304,-0.2307,-0.2311,-0.2315,-0.2315,-0.2321,-0.2324,-0.2324,-0.233,-0.2331,-0.2334,-0.2336,-0.2338,-0.2329,-0.2334,-0.2329,-0.2322,-0.2319,-0.2318,-0.2316,-0.2312,-0.2311,-0.2328,-0.2328,-0.2328,0,-0.2295,-0.2296,-0.2303,-0.2303,-0.2304,-0.2312,-0.231,-0.2312,-0.2318,-0.2318,-0.2322,-0.2325,-0.2328,-0.2327,-0.2324,-0.2326,-0.2325,-0.2329,-0.2317,-0.2316,-0.2315,-0.2311,-0.231,-0.2328,-0.2328,-0.2328,-0.2328,0,-0.2288,-0.2289,-0.2288,-0.2291,-0.2293,-0.2292,-0.2297,-0.2298,-0.2302,-0.2305,-0.2304,-0.2309,-0.2311,-0.2311,-0.2315,-0.2309,-0.2311,-0.2316,-0.2322,-0.2313,-0.2309,-0.2308,-0.2327,-0.2327,-0.2327,-0.2327,0,0,-0.2276,-0.2282,-0.2282,-0.2283,-0.2287,-0.2288,-0.2286,-0.2288,-0.2288,-0.2291,-0.2289,-0.2291,-0.2295,-0.2296,-0.2301,-0.2299,-0.2289,-0.2303,-0.2304,-0.23,-0.2282,-0.2278,-0.2276,-0.2293,-0.2292,-0.2292,-0.2281,0,-0.2269,-0.2268,-0.2272,-0.2269,-0.2269,-0.2275,-0.2274,-0.2277,-0.2279,-0.2279,-0.2283,-0.2283,-0.2289,-0.2289,-0.2288,-0.2291,-0.2286,-0.2292,-0.2291,-0.2291,-0.229,-0.2275,-0.2271,-0.2261,-0.228,-0.228,-0.228,0,-0.2261,-0.2262,-0.2259,-0.2262,-0.2262,-0.2261,-0.2262,-0.2262,-0.2264,-0.2266,-0.2267,-0.2272,-0.227,-0.2276,-0.2273,-0.2277,-0.2277,-0.2278,-0.2278,-0.2278,-0.2285,-0.2274,-0.2257,-0.2256,-0.2278,-0.2278,-0.2278,0,-0.2252,-0.2253,-0.225,-0.2251,-0.2255,-0.2254,-0.2255,-0.2257,-0.2257,-0.2258,-0.2258,-0.2259,-0.2259,-0.2259,-0.2264,-0.2268,-0.226,-0.2266,-0.2261,-0.2261,-0.2259,-0.226,-0.2242,-0.226,-0.226,-0.226,-0.226,0,-0.2243,-0.2241,-0.2246,-0.2245,-0.2242,-0.2246,-0.2243,-0.2245,-0.2247,-0.2245,-0.2251,-0.2249,-0.2255,-0.2254,-0.2257,-0.2254,-0.2254,-0.2255,-0.2256,-0.2255,-0.2254,-0.2255,-0.2255,-0.2259,-0.2259,-0.2259,-0.2259,0,-0.2233,-0.2236,-0.2234,-0.2237,-0.2237,-0.2235,-0.2237,-0.2236,-0.2238,-0.2236,-0.2236,-0.224,-0.2239,-0.2243,-0.2242,-0.2244,-0.2239,-0.2241,-0.2238,-0.2239,-0.2233,-0.2233,-0.2215,-0.2212,-0.2232,-0.2232,-0.2231,0,-0.2227,-0.2225,-0.2227,-0.2227,-0.2227,-0.2226,-0.2226,-0.223,-0.2229,-0.223,-0.2228,-0.2227,-0.2227,-0.2225,-0.2227,-0.2226,-0.2228,-0.2222,-0.2229,-0.2226,-0.2228,-0.2227,-0.2227,-0.2221,-0.2221,-0.2221,-0.222,0,-0.2217,-0.2218,-0.2217,-0.2216,-0.2216,-0.2215,-0.2216,-0.2215,-0.2219,-0.2218,-0.2216,-0.2215,-0.2214,-0.2213,-0.2212,-0.2213,-0.2217,-0.2218,-0.2217,-0.2215,-0.2213,-0.2213,-0.2234,-0.2219,-0.2219,-0.2219,-0.2219,-0.2219,-0.2208,-0.2206,-0.2207,-0.2205,-0.2205,-0.2205,-0.2203,-0.2204,-0.2203,-0.2202,-0.2204,-0.2202,-0.2202,-0.2202,-0.2202,-0.22,-0.2203,-0.2201,-0.22,-0.22,-0.2198,-0.2213,-0.22,-0.22,-0.22,-0.22,-0.22,0,-0.2197,-0.2197,-0.2196,-0.2195,-0.2194,-0.2197,-0.2196,-0.2195,-0.2192,-0.2192,-0.2191,-0.2188,-0.2186,-0.2188,-0.2186,-0.2184,-0.2185,-0.2183,-0.2183,-0.2183,-0.2196,-0.2197,-0.2182,-0.2182,-0.2182,-0.2182,-0.2182,-0.2182,-0.2191,-0.2188,-0.2188,-0.2184,-0.2184,-0.2181,-0.2181,-0.218,-0.218,-0.2176,-0.2174,-0.2175,-0.2175,-0.2173,-0.2171,-0.2171,-0.217,-0.2167,-0.2168,-0.2181,-0.2182,-0.2184,-0.2185,-0.2167,-0.2167,-0.2155,-0.2155,-0.2155]}]]